Date,TemperatureHighF,TemperatureAvgF,TemperatureLowF,DewpointHighF,DewpointAvgF,DewpointLowF,HumidityHigh,HumidityAvg,HumidityLow,PressureMaxIn,PressureMinIn,WindSpeedMaxMPH,WindSpeedAvgMPH,GustSpeedMaxMPH,PrecipitationSumIn
2013-2-1,31,16,8,30,6,0,96,64,42,0.00,40.00,17,9,38,0.05
2013-2-2,31,23,13,30,20,7,97,86,74,0.00,40.00,10,6,20,0.02
2013-2-3,29,27,25,25,23,19,92,84,76,0.00,40.00,12,7,21,0.00
2013-2-4,47,32,20,39,24,17,95,73,42,0.00,40.00,13,6,26,0.35
2013-2-5,51,44,39,40,36,32,98,78,52,0.00,40.00,11,8,23,0.16
2013-2-6,52,40,32,32,30,27,91,67,39,0.00,40.00,12,5,22,0.00
2013-2-7,62,46,34,35,29,27,79,56,28,0.00,40.00,9,6,16,0.00
2013-2-8,49,40,33,45,34,26,97,81,58,0.00,40.00,13,8,26,0.13
2013-2-9,48,36,26,26,19,15,84,54,28,0.00,40.00,8,5,15,0.05
2013-2-10,56,43,33,41,25,14,90,52,24,0.00,40.00,11,7,38,0.20
2013-2-11,57,51,41,51,35,21,88,57,30,0.00,40.00,17,11,35,0.13
2013-2-12,54,42,34,26,23,20,65,48,28,0.00,40.00,9,5,17,0.00
2013-2-13,41,37,30,32,28,22,97,72,48,0.00,40.00,9,6,20,0.04
2013-2-14,54,40,28,36,31,27,97,73,39,0.00,40.00,14,8,25,0.01
2013-2-15,45,36,31,35,31,26,95,82,57,0.00,40.00,9,5,22,0.05
2013-2-16,34,28,22,26,16,7,84,64,41,0.00,40.00,10,6,24,0.01
2013-2-17,34,25,18,14,9,4,84,52,27,0.00,40.00,9,5,24,0.00
2013-2-18,59,40,25,31,18,6,53,42,31,0.00,40.00,14,8,23,0.00
2013-2-19,51,39,28,38,26,14,93,62,35,0.00,40.00,19,14,38,0.12
2013-2-20,34,28,20,16,12,9,67,53,40,0.00,40.00,10,7,23,0.01
2013-2-21,41,29,17,27,14,11,88,57,33,0.00,40.00,14,7,21,0.01
2013-2-22,59,44,30,47,39,27,98,83,60,0.00,40.00,16,8,31,0.28
2013-2-23,49,43,38,44,35,26,89,74,51,0.00,40.00,7,5,14,0.07
2013-2-24,49,37,27,27,23,19,84,58,34,0.00,40.00,9,6,16,0.00
2013-2-25,52,37,25,23,20,18,80,54,27,0.00,40.00,12,8,25,0.00
2013-2-26,57,46,38,50,36,19,96,71,45,0.00,40.00,17,10,44,0.44
2013-2-27,41,37,32,36,33,29,94,85,71,0.00,40.00,14,9,26,0.07
2013-2-28,33,32,30,31,28,26,97,88,81,0.00,40.00,13,9,25,0.02